Regional Weather Roundup
Issued by NWS

Home | Current Version | Previous Version | Graphics & Text | Print | Product List | Glossary On
Versions: 1 2 3 4 5 6 7 8 9 10 11 12 13 14 15 16 17 18 19 20 21 22 23 24 25 26 27 28 29 30 31 32 33 34 35 36 37 38 39 40 41 42 43 44 45 46 47 48 49 50
000
ASUS45 KABQ 270910
RWRNM
NEW MEXICO REGIONAL WEATHER ROUNDUP
NATIONAL WEATHER SERVICE ALBUQUERQUE NM
300 AM MDT FRI MAY 27 2016

NOTE: "FAIR" MEANS FEW OR NO CLOUDS BELOW 12,000 FEET AGL WITH NO
       SIGNIFICANT WEATHER OR OBSTRUCTIONS TO VISION.

      THIS PRODUCT IS RELEASED AS TWO VERSIONS.  ONE VERSION NEAR
      THE TOP OF THE HOUR CONTAINING PRELIMINARY DATA FROM ALBUQUERQUE
      AND OTHER STATIONS.  A FINAL VERSION WITH ADDITIONAL DATA IS
      ISSUED ABOUT 10 MINUTES AFTER THE HOUR.

NMZ501-503-504-510>518-271000-
NORTHWEST PLATEAU/NORTHCENTRAL MOUNTAINS

CITY           SKY/WX    TMP DP  RH WIND       PRES   REMARKS
FARMINGTON     FAIR      49  31  49 W3        29.92F
LOS ALAMOS     CLOUDY    49  24  37 NW5       29.95F
SANTA FE       FAIR      43  22  43 N5        29.91F
TAOS           CLOUDY    46  27  46 E10       29.94F
ANGEL FIRE     CLOUDY    37  29  70 CALM      29.97F

$$
NMZ402-403-502-505>509-271000-
WESTCENTRAL MOUNTAINS/SOUTHWEST MOUNTAINS

CITY           SKY/WX    TMP DP  RH WIND       PRES   REMARKS
GALLUP         FAIR      41  28  60 CALM      30.00F
GRANTS         FAIR      40  26  58 NW6       29.99F
SILVER CITY      N/A     46  21  36 NW12      30.01S

$$
NMZ407-409-411-412-271000-
SOUTHERN DESERTS

CITY           SKY/WX    TMP DP  RH WIND       PRES   REMARKS
LORDSBURG      FAIR      54  23  30 W8        29.97F
DEMING         FAIR      55  22  27 W9        29.94F
LAS CRUCES     FAIR      53  16  23 W9        29.94S
HOLLOMAN AFB   FAIR      56  15  20 N6        29.87F
ALAMOGORDO     FAIR      54  18  24 NE6       29.89S
T OR C         FAIR      57  24  28 NW8       29.92F

$$
NMZ519>523-271000-
CENTRAL VALLEYS/CENTRAL HIGHLANDS

CITY           SKY/WX    TMP DP  RH WIND       PRES   REMARKS
ALBUQUERQUE    FAIR      53  23  31 W3        29.92F
DOUBLE EAGLE   FAIR      41  23  48 W6        29.94F
MORIARTY ARPT  FAIR      39  19  44 NE6       29.93F WCI  35
CLINES CORNERS FAIR      40  21  46 W15       29.90F WCI  32
BELEN          FAIR      51  23  33 W10       29.93S
SOCORRO        FAIR      54  24  30 CALM      29.92F

$$
NMZ524>526-539-540-271000-
SOUTHCENTRAL MOUNTAINS

CITY           SKY/WX    TMP DP  RH WIND       PRES   REMARKS
RUIDOSO          N/A     50  16  25 NW14G24   29.99S

$$
NMZ527>531-271000-
NORTHEAST HIGHLANDS/NORTHEAST PLAINS

CITY           SKY/WX    TMP DP  RH WIND       PRES   REMARKS
LAS VEGAS      FAIR      45  21  38 W6        29.89F
RATON          FAIR      38  31  76 N5        29.85F WCI  34
CLAYTON        FAIR      48  37  65 NW12      29.81F

$$
NMZ532>537-271000-
EASTCENTRAL PLAINS

CITY           SKY/WX    TMP DP  RH WIND       PRES   REMARKS
TUCUMCARI      FAIR      47  33  58 N5        29.81F
CANNON AFB     FAIR      51  20  29 N9        29.81F
CLOVIS AIRPORT FAIR      52  27  37 NW10      29.81F

$$
NMZ028-029-538-271000-
SOUTHEAST PLAINS

CITY           SKY/WX    TMP DP  RH WIND       PRES   REMARKS
ROSWELL        FAIR      57  17  21 NW8       29.81F
ARTESIA        FAIR      57  16  19 W13       29.82S
CARLSBAD       FAIR      61  14  16 W10       29.80S
HOBBS          FAIR      55  16  21 NW10      29.82F


$$




USA.gov is the U.S. government's official web portal to all federal, state and local government web resources and services.